Flag for U.S.A. Weather past 2 weeks in Cocoa Beach, Florida, U.S.A.

Now
79 °F

Clear.


Feels Like: 82 °F
Forecast: 76 / 87 °F
Wind: 3 mph from South

Location: Cocoa / Patrick Air Force Base

Current Time: Aug 28, 2014 at 8:03:10 AM

Latest Report: Aug 28, 2014 at 6:58 AM


Visibility: 10 mi

Pressure: 30.00 "Hg

Humidity: 89%

Dew point: 75 °F

Location of Cocoa BeachLocation

Historic Weather in Cocoa Beach — Graph

°F

Cocoa Beach temperature yesterday

Maximum temperature yesterday: 87 °F (at 1:58 PM)
Minimum temperature yesterday: 78 °F (at 6:58 AM)
Average temperature yesterday: 82 °F

Past Weeks' High & Low Weather Summary

 TemperatureHumidityPressure
High94 °F (Aug 13, 2:58 PM)97% (Aug 15, 6:58 PM)30.15 "Hg (Aug 15, 6:58 PM)
Low74 °F (Aug 15, 5:58 PM)52% (Aug 13, 2:58 PM)29.79 "Hg (Aug 24, 3:58 PM)
Average83 °F80%30.00 "Hg
* Reported Aug 13 6:58 AM — Aug 28 6:58 AM, Cocoa Beach, Weather by CustomWeather, © 2014

Note: Actual official high and low records may vary slightly from our data, if they occured in-between our weather recording intervals... More about our weather records

Advertising

Cocoa Beach weather history for previous 24 hours

 ConditionsComfort  
Time TempWeatherWind HumidityBarometerVisibility
6:58 AM
Aug 28
79 °FClear.3 mph89%30.00 "Hg10 mi
5:58 AM79 °FClear.No wind91%29.99 "Hg10 mi
4:58 AM79 °FClear.No wind89%29.99 "Hg10 mi
3:58 AM79 °FClear.No wind89%29.99 "Hg10 mi
2:58 AM80 °FPassing clouds.No wind87%29.99 "Hg10 mi
1:58 AM81 °FClear.2 mph86%30.01 "Hg10 mi
12:58 AM82 °FPassing clouds.3 mph86%30.02 "Hg10 mi
11:58 PM
Aug 27
81 °FPassing clouds.5 mph84%30.01 "Hg10 mi
10:58 PM81 °FPassing clouds.6 mph82%30.02 "Hg10 mi
9:58 PM80 °FClear.6 mph82%30.01 "Hg10 mi
8:58 PM81 °FClear.9 mph82%30.00 "Hg10 mi
7:58 PM81 °FSunny.16 mph79%29.99 "Hg10 mi
6:58 PM83 °FSunny.18 mph78%29.96 "Hg10 mi
5:58 PM85 °FSunny.18 mph71%29.97 "Hg10 mi
4:58 PM86 °FSunny.18 mph69%29.96 "Hg10 mi
3:58 PM86 °FScattered clouds.14 mph70%29.96 "Hg10 mi
2:58 PM86 °FPassing clouds.14 mph70%29.97 "Hg10 mi
1:58 PM87 °FSunny.12 mph67%29.99 "Hg10 mi
12:58 PM87 °FSunny.8 mph65%29.99 "Hg10 mi
11:58 AM86 °FSunny.7 mph64%29.99 "Hg10 mi
10:58 AM86 °FSunny.2 mph65%30.00 "Hg10 mi
9:58 AM84 °FSunny.7 mph71%29.98 "Hg10 mi
8:58 AM81 °FSunny.8 mph80%29.97 "Hg10 mi
Weather by CustomWeather, © 2014

See weather overviewHow to use our weather pages